Regional Weather Roundup
Issued by NWS Binghamton, NY

Home | Current Version | Previous Version | Text Only | Print | Product List | Glossary On
Versions: 1 2 3 4 5 6 7 8 9 10 11 12 13 14 15 16 17 18 19 20 21 22 23 24 25 26 27 28 29 30 31 32 33 34 35 36 37 38 39 40 41 42 43 44 45 46 47 48 49 50
511
ASUS41 KBGM 030410
RWRBGM

REGIONAL WEATHER ROUNDUP
NATIONAL WEATHER SERVICE BINGHAMTON NY
1100 PM EST FRI DEC 02 2016

Note: "fair" indicates few or no clouds below 12,000 feet with no
significant weather and/or obstructions to visibility.

* = Station(s) that does not report precipitation, such as rain,
snow, etc, also no thunder or fog.

NYZ009-015>018-022>025-036-037-044>046-055>057-062-030500
...Central New York...

CITY           SKY/WX    TMP DP  RH WIND       PRES   REMARKS
Binghamton     LGT SNOW  31  30  96 NW9G18    29.89R VSB 1   WCI  23
Cortland       FLURRIES  34  32  93 W9G18     29.91R WCI  26
Dansville      CLOUDY    38  28  67 W9G22     29.99R WCI  31
Elmira         CLOUDY    38  29  70 W8        29.95R WCI  32
Seneca Falls   CLOUDY    37  36  93 W9        29.96R WCI  31
Ithaca         NOT AVBL
Hamilton       CLOUDY    34  30  86 NW10G16   29.87R WCI  26
Monticello     CLOUDY    36  28  75 W14G20    29.86S WCI  27
Norwich        FLURRIES  34  30  86 NW6       29.89R WCI  29
Oneonta        LGT SNOW  32  32 100 W8G22     29.83R WCI  25
Penn Yan       FLURRIES  36  29  75 W10G18    29.96R WCI  28
Rome           CLOUDY    33  33 100 W9        29.90R WCI  25
Sidney         LGT RAIN  36  36 100 W7        29.89R WCI  30
Syracuse       FLURRIES  35  34  96 W10       29.91R WCI  27
$$

PAZ038>040-043-044-047-048-072-030500
...Northeast Pennsylvania...

CITY           SKY/WX    TMP DP  RH WIND       PRES   REMARKS
Hazleton       CLOUDY    36  30  80 W8        29.95S WCI  29
Scranton       CLOUDY    39  32  76 SW12      29.92S WCI  32
$$
&&
KEY
WCI = Wind Chill Index
VSB = Visibility
HX  = Heat Index
$$




USA.gov is the U.S. government's official web portal to all federal, state and local government web resources and services.